Location: Be?i?
(36.9044°N, 30.1006°E)
Time: 11:54:03
(UTC+00:00)

Cosmos 1461 - Pass Details

Date: 05 August 2024
Orbit: 494 x 569 km, 65.0° (Epoch: 08 September)

Event Time Altitude Azimuth Distance (km) Brightness Sun altitude
Rises 18:00:34 0° 333° (NNW) 2,597 7.3 -11.3°
Reaches altitude 10° 18:02:43 10° 336° (NNW) 1,719 6.2 -11.7°
Maximum altitude 18:06:32 65° 59° (ENE) 567 2.7 -12.3°
Enters shadow 18:09:08 20° 138° (SE) 1,248 4.0 -12.8°
